Home   Weather   Jerusalem   Past weeks
Flag for Israel

Past Weather in Jerusalem, Israel — Yesterday and Last 2 Weeks

Now
57 °F

Clear.


Feels Like: 57 °F
Forecast: 58 / 45 °F
Wind: 5 mph from Southeast

Location: Ben Gurion International Airport

Current Time: Apr 9, 2020 at 1:39:44 am

Latest Report: Apr 9, 2020 at 1:20 am


Visibility: 10 mi

Pressure: 29.95 "Hg (27.33 "Hg at 769m altitude)

Humidity: 77%

Dew Point: 50 °F

Location of JerusalemLocation

Past Weather in Jerusalem — Graph

°F

Jerusalem Temperature Yesterday

Maximum temperature yesterday: 70 °F (at 12:20 pm)
Minimum temperature yesterday: 57 °F (at 1:20 am)
Average temperature yesterday: 63 °F

High & Low Weather Summary for the Past Weeks

 TemperatureHumidityPressure
High95 °F (Apr 5, 11:50 am)94% (Mar 25, 3:20 am)30.07 "Hg (Mar 25, 3:20 am)
Low50 °F (Apr 3, 6:20 am)11% (Apr 5, 12:20 pm)29.68 "Hg (Mar 27, 4:50 am)
Average66 °F61%29.92 "Hg
* Reported Mar 24 11:20 pm — Apr 9 12:20 am, Jerusalem. Weather by CustomWeather, © 2020

Note: Actual official high and low records may vary slightly from our data, if they occured in-between our weather recording intervals... More about our weather records

Jerusalem Weather History for the Previous 24 Hours

Scroll right to see more
 ConditionsComfort  
Time TempWeatherWind HumidityBarometerVisibility
12:20 am
Thu, Apr 9
59 °FPassing clouds.5 mph72%29.98 "HgN/A
11:50 pm
Wed, Apr 8
59 °FPassing clouds.5 mph77%29.98 "HgN/A
11:20 pm59 °FClear.5 mph77%29.98 "Hg10 mi
10:50 pm61 °FPassing clouds.3 mph72%29.98 "HgN/A
10:20 pm61 °FPassing clouds.3 mph72%30.01 "HgN/A
9:50 pm61 °FPassing clouds.2 mph72%29.98 "HgN/A
9:20 pm63 °FPassing clouds.3 mph64%29.98 "HgN/A
8:50 pm63 °FPassing clouds.3 mph64%29.98 "HgN/A
8:20 pm63 °FPassing clouds.5 mph64%29.98 "HgN/A
7:50 pm63 °FPassing clouds.5 mph68%29.98 "HgN/A
7:20 pm63 °FPassing clouds.7 mph68%29.98 "HgN/A
6:50 pm64 °FPassing clouds.8 mph64%29.98 "HgN/A
6:20 pm64 °FScattered clouds.12 mph60%29.98 "HgN/A
5:50 pm66 °FScattered clouds.14 mph56%29.98 "HgN/A
5:20 pm66 °FScattered clouds.9 mph60%29.95 "HgN/A
4:50 pm66 °FPassing clouds.13 mph56%29.95 "HgN/A
4:20 pm68 °FPassing clouds.13 mph49%29.95 "HgN/A
3:50 pm68 °FPassing clouds.15 mph46%29.95 "HgN/A
3:20 pm68 °FPassing clouds.13 mph49%29.95 "HgN/A
2:50 pm68 °FPassing clouds.15 mph46%29.98 "HgN/A
2:20 pm68 °FPassing clouds.16 mph49%29.98 "HgN/A
1:50 pm68 °FPassing clouds.15 mph46%29.98 "HgN/A
1:20 pm68 °FPassing clouds.14 mph46%29.98 "HgN/A
12:50 pm68 °FPassing clouds.15 mph49%29.98 "HgN/A
12:20 pm70 °FScattered clouds.12 mph46%29.98 "HgN/A
11:50 am68 °FScattered clouds.10 mph49%29.98 "HgN/A
11:20 am68 °FScattered clouds.6 mph49%29.98 "HgN/A
10:50 am66 °FScattered clouds.6 mphN/A30.01 "HgN/A
10:20 am66 °FScattered clouds.5 mph52%30.01 "HgN/A
9:50 am64 °FPassing clouds.3 mph60%30.01 "HgN/A
9:20 am64 °FPassing clouds.5 mph60%30.01 "HgN/A
8:50 am63 °FSunny.7 mph64%30.01 "Hg10 mi
8:20 am61 °FPassing clouds.6 mph68%29.98 "HgN/A
7:50 am59 °FPassing clouds.6 mph72%29.98 "HgN/A
7:20 am59 °FPassing clouds.6 mph72%29.98 "HgN/A
6:50 am57 °FPartly sunny.3 mph77%29.98 "HgN/A
6:20 am57 °FScattered clouds.3 mph77%29.98 "HgN/A
5:50 am57 °FPartly cloudy.3 mph77%29.98 "HgN/A
5:20 am57 °FPartly cloudy.3 mph77%29.98 "HgN/A
4:50 am57 °FLight rain. Partly cloudy.6 mph77%29.98 "HgN/A
4:20 am57 °FPassing clouds.6 mph77%29.98 "HgN/A
3:20 am57 °FPassing clouds.7 mph77%29.98 "HgN/A
2:50 am57 °FLight rain. Partly cloudy.7 mph77%29.98 "HgN/A
2:20 am57 °FPartly cloudy.6 mph77%29.98 "HgN/A
1:50 am57 °FPassing clouds.6 mph77%29.98 "HgN/A
1:20 am57 °FPassing clouds.5 mph77%30.01 "HgN/A
Weather by CustomWeather, © 2020

See weather overview

Advertising